Regional Weather Roundup
Issued by NWS

Home | Current Version | Previous Version | Graphics & Text | Print | Product List | Glossary On
Versions: 1 2 3 4 5 6 7 8 9 10 11 12 13 14 15 16 17 18 19 20 21 22 23 24 25 26 27
000
ASUS45 KBOI 251310
RWRID

IDAHO REGIONAL WEATHER ROUNDUP
NATIONAL WEATHER SERVICE BOISE ID
700 AM MDT SAT MAR 25 2017

NOTE: "FAIR" INDICATES FEW OR NO CLOUDS BELOW 12000 FEET
WITH NO SIGNIFICANT WEATHER AND/OR OBSTRUCTIONS TO VISIBILITY

IDZ012-014-251400-
SOUTHWEST IDAHO


CITY           SKY/WX    TMP DP  RH WIND       PRES   REMARKS
BOISE          MOCLDY    37  35  92 S3        30.09R
CALDWELL       MOCLDY    36  35  96 CALM      30.10R
MOUNTAIN HOME  CLOUDY    39  39 100 NW6       30.08S WCI  35
$$

IDZ016-017-251400-
SOUTHCENTRAL IDAHO


CITY           SKY/WX    TMP DP  RH WIND       PRES   REMARKS
BURLEY         CLOUDY    40  36  86 SW7       30.05S
JEROME         CLOUDY    39  37  92 S5        30.06S
TWIN FALLS     CLOUDY    39  34  82 SW10      30.07S WCI  32
$$

IDZ019>023-251400-
SOUTHEAST IDAHO


CITY           SKY/WX    TMP DP  RH WIND       PRES   REMARKS
IDAHO FALLS    CLOUDY    40  38  93 SW16      30.03R WCI  31
POCATELLO      CLOUDY    41  36  82 SW9       30.05S
REXBURG        CLOUDY    41  36  82 SW13      30.02S
$$

IDZ006-010-011-018-031-032-251400-
CENTRAL IDAHO MOUNTAINS


CITY           SKY/WX    TMP DP  RH WIND       PRES   REMARKS
MCCALL         FOG       30  27  88 SW3       30.04R VSB 1/2
HAILEY         CLEAR     34  30  86 W7        30.05S WCI  28
STANLEY          N/A     29  27  92 NE3       30.05R
SALMON         CLOUDY    37  30  75 S3        30.05S
CHALLIS        CLOUDY    34  28  79 N5        30.03R WCI  30
$$

IDZ002-004-006-007-026-251400-
NORTHERN IDAHO


CITY           SKY/WX    TMP DP  RH WIND       PRES   REMARKS
LEWISTON       CLOUDY    41  37  86 CALM      30.08S
LOWELL           N/A     40  38  93 CALM      30.13R
COEUR D`ALENE  CLOUDY    40  37  89 SW5       30.03R
MULLAN PASS    LGT SNOW  28  28 100 SW6       29.97R VSB 3/4 WCI  22
$$




USA.gov is the U.S. government's official web portal to all federal, state and local government web resources and services.